EW5123 Weather Reports


time (UTC)temp
F
wind
direction
speed
knots
gust
knots
rain 1hr
in
rain 24hr
in
rain mn
in
humidity
%
barometer
mb
20260905160546 79 311 0.9 3.5 0.00 0.00 0.00 32 986.1
20260905160047 78 348 1.7 4.3 0.00 0.00 0.00 31 986.0
20260905155548 78 335 0.9 4.3 0.00 0.00 0.00 32 986.0
20260905155544 78 321 1.7 4.3 0.00 0.00 0.00 32 985.9
20260905154543 77 328 1.7 4.3 0.00 0.00 0.00 31 985.9
20260905154044 77 7 1.7 6.1 0.00 0.00 0.00 31 985.9
20260905153542 77 310 1.7 6.1 0.00 0.00 0.00 30 986.0
20260905153043 77 333 1.7 5.2 0.00 0.00 0.00 32 986.0
20260905152546 77 320 0.0 3.5 0.00 0.00 0.00 33 986.0
20260905152542 77 2 0.9 5.2 0.00 0.00 0.00 31 986.0
20260905151542 76 302 0.0 2.6 0.00 0.00 0.00 34 986.0
20260905151042 76 225 0.0 2.6 0.00 0.00 0.00 36 986.0
20260905150546 74 1 0.0 3.5 0.00 0.00 0.00 36 986.0
20260905150542 75 331 0.0 1.7 0.00 0.00 0.00 36 986.0
20260905145542 74 333 0.0 3.5 0.00 0.00 0.00 37 986.0
20260905145045 73 231 0.0 3.5 0.00 0.00 0.00 41 986.1
20260905145041 73 281 0.0 1.7 0.00 0.00 0.00 39 986.1
20260905144042 72 243 0.9 3.5 0.00 0.00 0.00 42 986.0
20260905143541 71 311 0.0 2.6 0.00 0.00 0.00 43 986.0
20260905143046 69 326 0.0 2.6 0.00 0.00 0.00 47 986.0
20260905143042 70 299 0.0 2.6 0.00 0.00 0.00 44 986.0
20260905142045 67 305 0.0 2.6 0.00 0.00 0.00 49 986.0
20260905142041 65 320 0.0 0.9 0.00 0.00 0.00 55 985.9
20260905141040 63 160 0.0 0.0 0.00 0.00 0.00 60 985.8
20260905140540 62 162 0.0 0.0 0.00 0.00 0.00 64 985.8
20260905140039 62 162 0.0 0.0 0.00 0.00 0.00 65 985.7
20260905135540 62 162 0.0 0.0 0.00 0.00 0.00 67 985.7
20260905135040 60 162 0.0 0.0 0.00 0.00 0.00 68 985.6
20260905134537 59 162 0.0 0.0 0.00 0.00 0.00 70 985.4
20260905134038 58 162 0.0 0.0 0.00 0.00 0.00 72 985.4
20260905133538 58 162 0.0 0.0 0.00 0.00 0.00 74 985.6
20260905133035 57 162 0.0 0.0 0.00 0.00 0.00 74 985.6
20260905132534 57 162 0.0 0.0 0.00 0.00 0.00 74 985.6
20260905132034 56 162 0.0 0.0 0.00 0.00 0.00 76 985.6
20260905131535 56 162 0.0 0.0 0.00 0.00 0.00 76 985.6
20260905131034 56 162 0.0 0.0 0.00 0.00 0.00 77 985.6
20260905130533 56 162 0.0 0.0 0.00 0.00 0.00 75 985.4
20260905130037 56 162 0.0 0.0 0.00 0.00 0.00 75 985.3
20260905130033 56 162 0.0 0.0 0.00 0.00 0.00 75 985.4
20260905125639 56 162 0.0 0.0 0.00 0.00 0.00 76 985.1
20260905125033 56 162 0.0 0.0 0.00 0.00 0.00 75 985.1
20260905124033 55 162 0.0 0.0 0.00 0.00 0.00 77 985.1
20260905123539 55 162 0.0 0.0 0.00 0.00 0.00 76 985.0
20260905123534 55 162 0.0 0.0 0.00 0.00 0.00 77 985.0
20260905122533 56 162 0.0 0.0 0.00 0.00 0.00 74 984.8
20260905122034 56 134 0.0 0.0 0.00 0.00 0.00 74 984.7
20260905121534 56 134 0.0 0.9 0.00 0.00 0.00 73 984.7
20260905121038 57 134 0.0 0.0 0.00 0.00 0.00 72 984.7
20260905121034 57 134 0.0 0.9 0.00 0.00 0.00 72 984.7
20260905120034 57 134 0.0 0.0 0.00 0.00 0.00 72 984.6
20260905115533 58 134 0.0 0.0 0.00 0.00 0.00 71 984.6
20260905115034 58 177 0.0 0.0 0.00 0.00 0.00 71 984.5
20260905114534 58 205 0.0 0.0 0.00 0.00 0.00 71 984.6
20260905114034 59 261 0.0 0.0 0.00 0.00 0.00 71 984.6
20260905113533 59 308 0.0 0.0 0.00 0.00 0.00 70 984.6
20260905113032 59 308 0.0 0.0 0.00 0.00 0.00 70 984.6
20260905112532 60 309 0.0 0.0 0.00 0.00 0.00 70 984.6
20260905112034 61 308 0.0 0.9 0.00 0.00 0.00 67 984.7
20260905112030 60 308 0.0 0.0 0.00 0.00 0.00 68 984.6
20260905111030 60 304 0.0 0.9 0.00 0.00 0.00 68 984.6
20260905110530 60 130 0.0 0.0 0.00 0.00 0.00 68 984.6
20260905110030 61 130 0.0 0.0 0.00 0.00 0.00 67 984.7
20260905105527 61 130 0.0 0.9 0.00 0.00 0.00 66 984.6
20260905105028 61 130 0.0 0.9 0.00 0.00 0.00 65 984.6
20260905104528 62 119 0.0 0.9 0.00 0.00 0.00 65 984.5
20260905104028 62 118 0.0 0.9 0.00 0.00 0.00 64 984.5
20260905103528 62 137 0.0 0.0 0.00 0.00 0.00 64 984.5
20260905103027 63 137 0.0 0.9 0.00 0.00 0.00 62 984.5
20260905102527 63 137 0.0 1.7 0.00 0.00 0.00 63 984.5
20260905102032 62 158 0.9 3.5 0.00 0.00 0.00 65 984.4
20260905102028 63 157 0.0 2.6 0.00 0.00 0.00 63 984.4
20260905101527 63 150 0.9 2.6 0.00 0.00 0.00 64 984.4
20260905100525 62 202 0.9 3.5 0.00 0.00 0.00 67 984.4
20260905100025 61 141 0.0 2.6 0.00 0.00 0.00 67 984.4
20260905095528 61 152 0.0 0.0 0.00 0.00 0.00 68 984.6
20260905095524 61 190 0.0 0.0 0.00 0.00 0.00 68 984.5
20260905095023 61 235 0.0 0.0 0.00 0.00 0.00 68 984.6
20260905094024 61 159 0.0 0.0 0.00 0.00 0.00 66 984.5
20260905093632 63 149 0.0 3.5 0.00 0.00 0.00 64 984.4
20260905093527 63 149 0.0 1.7 0.00 0.00 0.00 64 984.4
20260905093523 62 176 0.0 0.0 0.00 0.00 0.00 65 984.4
20260905092022 64 159 0.9 4.3 0.00 0.00 0.00 63 984.4
20260905091521 64 191 0.9 5.2 0.00 0.00 0.00 62 984.3
20260905091026 65 181 1.7 4.3 0.00 0.00 0.00 60 984.4
20260905091021 65 181 1.7 5.2 0.00 0.00 0.00 61 984.4
20260905090521 65 198 1.7 5.2 0.00 0.00 0.00 61 984.4
20260905085521 66 183 0.9 3.5 0.00 0.00 0.00 59 984.5
20260905085021 67 176 0.9 3.5 0.00 0.00 0.00 57 984.4
20260905084522 67 143 1.7 4.3 0.00 0.00 0.00 54 984.4
20260905084025 68 207 1.7 3.5 0.00 0.00 0.00 54 984.4
20260905084021 68 186 1.7 4.3 0.00 0.00 0.00 54 984.4
20260905083020 68 181 2.6 5.2 0.00 0.00 0.00 53 984.4
20260905082519 68 205 3.5 7.0 0.00 0.00 0.00 54 984.4
20260905082019 68 194 2.6 7.0 0.00 0.00 0.00 55 984.4
20260905081519 67 236 2.6 5.2 0.00 0.00 0.00 56 984.5
20260905081019 68 200 2.6 6.1 0.00 0.00 0.00 56 984.5
20260905080520 67 192 1.7 6.1 0.00 0.00 0.00 56 984.4
20260905080019 67 204 1.7 4.3 0.00 0.00 0.00 57 984.4
20260905075524 66 192 0.9 4.3 0.00 0.00 0.00 58 984.5
20260905075520 66 174 1.7 4.3 0.00 0.00 0.00 58 984.4
20260905074519 67 155 0.9 7.0 0.00 0.00 0.00 57 984.5
20260905074018 67 170 2.6 7.0 0.00 0.00 0.00 57 984.5
20260905073517 67 148 3.5 7.8 0.00 0.00 0.00 56 984.5
20260905073018 67 143 3.5 7.8 0.00 0.00 0.00 56 984.5
20260905072517 67 180 1.7 7.0 0.00 0.00 0.00 56 984.6
20260905072017 67 210 0.0 3.5 0.00 0.00 0.00 57 984.6
20260905071517 67 228 0.0 2.6 0.00 0.00 0.00 56 984.6
20260905071017 66 219 0.0 2.6 0.00 0.00 0.00 57 984.7
20260905070522 67 147 0.0 0.0 0.00 0.00 0.00 55 984.7
20260905070517 66 147 0.0 0.0 0.00 0.00 0.00 56 984.7
20260905065515 67 129 0.0 0.0 0.00 0.00 0.00 56 984.6
20260905065014 67 207 0.0 0.0 0.00 0.00 0.00 55 984.6
20260905064513 68 186 0.0 1.7 0.00 0.00 0.00 54 984.6
20260905064017 68 234 0.9 3.5 0.00 0.00 0.00 54 984.6
20260905064013 68 223 0.9 3.5 0.00 0.00 0.00 54 984.6
20260905063011 67 207 0.0 2.6 0.00 0.00 0.00 55 984.6
20260905062510 67 202 0.0 1.7 0.00 0.00 0.00 55 984.6
20260905062015 67 316 0.0 0.0 0.00 0.00 0.00 54 984.4
20260905062011 67 198 0.0 1.7 0.00 0.00 0.00 55 984.5
20260905061011 66 258 0.0 0.0 0.00 0.00 0.00 56 984.4
20260905060511 67 204 0.0 0.0 0.00 0.00 0.00 54 984.5
20260905060010 67 240 0.0 0.0 0.00 0.00 0.00 53 984.3
20260905055515 68 240 0.0 0.9 0.00 0.00 0.00 50 984.1
20260905055510 67 240 0.0 0.0 0.00 0.00 0.00 52 984.3
20260905055010 68 240 0.0 0.9 0.00 0.00 0.00 52 984.1
20260905054009 68 244 0.0 0.9 0.00 0.00 0.00 50 984.3
20260905053508 69 230 0.0 0.0 0.00 0.00 0.00 49 984.1
20260905053008 69 231 0.0 3.5 0.00 0.00 0.00 48 984.3
20260905052508 69 196 0.9 3.5 0.00 0.00 0.00 49 984.3
20260905052006 69 210 0.9 4.3 0.00 0.00 0.00 50 984.3
20260905051506 69 182 0.9 6.1 0.00 0.00 0.00 51 984.1
20260905051006 69 185 1.7 6.1 0.00 0.00 0.00 51 984.3
20260905050505 69 153 1.7 6.1 0.00 0.00 0.00 50 984.3
20260905050005 69 198 1.7 6.1 0.00 0.00 0.00 49 984.3
20260905045507 68 198 1.7 5.2 0.00 0.00 0.00 49 984.3
20260905045005 68 210 2.6 5.2 0.00 0.00 0.00 50 984.1
20260905044511 68 205 1.7 4.3 0.00 0.00 0.00 50 984.0
20260905044506 68 149 2.6 4.3 0.00 0.00 0.00 50 984.1
20260905043506 68 205 1.7 5.2 0.00 0.00 0.00 50 984.1
20260905043006 68 177 1.7 6.1 0.00 0.00 0.00 50 984.3
20260905042505 68 144 1.7 6.1 0.00 0.00 0.00 50 984.1
20260905042006 68 173 0.9 4.3 0.00 0.00 0.00 49 984.1
20260905041511 68 207 0.9 4.3 0.00 0.00 0.00 48 984.1
20260905041506 68 198 0.9 4.3 0.00 0.00 0.00 49 984.3
20260905040506 69 158 0.0 3.5 0.00 0.00 0.00 47 984.1
20260905040005 69 165 0.9 3.5 0.00 0.00 0.00 46 984.1
20260905035505 69 141 1.7 5.2 0.00 0.00 0.00 45 984.1
20260905035011 70 172 1.7 5.2 0.00 0.00 0.00 45 984.1
20260905035006 70 181 1.7 5.2 0.00 0.00 0.00 45 984.0
20260905034011 69 172 0.0 5.2 0.00 0.00 0.00 45 984.1
20260905034005 70 151 0.9 5.2 0.00 0.00 0.00 45 984.1
20260905033005 69 160 0.9 3.5 0.00 0.00 0.00 46 984.0
20260905032505 69 129 0.9 3.5 0.00 0.00 0.00 46 984.1
20260905032005 69 166 0.0 3.5 0.00 0.00 0.00 46 984.0
20260905031506 69 183 0.0 2.6 0.00 0.00 0.00 46 983.9
20260905031006 69 193 0.0 1.7 0.00 0.00 0.00 46 983.9
20260905030506 70 179 0.0 1.7 0.00 0.00 0.00 46 983.9
20260905030005 70 177 0.0 0.0 0.00 0.00 0.00 45 983.9
20260905025505 70 151 0.0 0.0 0.00 0.00 0.00 44 983.7
20260905025005 70 139 0.0 0.0 0.00 0.00 0.00 44 983.7
20260905024505 69 172 0.0 2.6 0.00 0.00 0.00 45 983.7
20260905024005 70 191 0.0 2.6 0.00 0.00 0.00 45 983.5
20260905023505 70 159 0.0 0.0 0.00 0.00 0.00 45 983.5
20260905023005 70 148 0.0 0.0 0.00 0.00 0.00 44 983.4
20260905022506 71 202 0.0 0.9 0.00 0.00 0.00 44 983.3
20260905022005 71 146 0.0 0.9 0.00 0.00 0.00 43 983.3
20260905021505 71 147 0.0 0.9 0.00 0.00 0.00 43 983.3
20260905021005 72 166 0.0 1.7 0.00 0.00 0.00 43 983.2
20260905020506 72 197 0.0 2.6 0.00 0.00 0.00 43 983.2
20260905020009 73 185 0.0 2.6 0.00 0.00 0.00 42 983.1
20260905020006 72 148 0.0 2.6 0.00 0.00 0.00 43 983.2
20260905015005 74 256 0.0 1.7 0.00 0.00 0.00 41 983.0
20260905014506 75 131 0.0 3.5 0.00 0.00 0.00 39 983.0
20260905014005 76 140 0.0 3.5 0.00 0.00 0.00 37 982.8
20260905013507 76 155 0.0 0.9 0.00 0.00 0.00 36 982.8
20260905013006 76 272 0.0 0.9 0.00 0.00 0.00 36 982.8
20260905012504 75 9 0.0 3.5 0.00 0.00 0.00 37 982.7
20260905012003 75 239 0.0 3.5 0.00 0.00 0.00 41 982.6
20260905011503 77 170 0.0 2.6 0.00 0.00 0.00 38 982.7
20260905011004 78 184 0.0 1.7 0.00 0.00 0.00 36 982.6
20260905010503 78 160 0.0 0.0 0.00 0.00 0.00 34 982.6
20260905010004 79 338 0.0 0.9 0.00 0.00 0.00 33 982.5
20260905005504 79 253 0.0 4.3 0.00 0.00 0.00 31 982.5
20260905005004 80 134 0.9 4.3 0.00 0.00 0.00 31 982.5
20260905004507 81 141 6.1 18.2 0.00 0.00 0.00 31 982.6
20260905004503 81 340 3.5 18.2 0.00 0.00 0.00 32 982.6
20260905003504 82 209 3.5 14.8 0.00 0.00 0.00 31 982.6
20260905003001 82 185 0.9 7.0 0.00 0.00 0.00 29 982.7
20260905002501 82 189 0.9 3.5 0.00 0.00 0.00 28 982.6
20260905002002 83 176 0.9 3.5 0.00 0.00 0.00 28 982.5
20260905001501 83 191 0.9 3.5 0.00 0.00 0.00 28 982.5
20260905001001 84 188 0.9 4.3 0.00 0.00 0.00 27 982.5
20260905000502 85 200 0.0 4.3 0.00 0.00 0.00 25 982.5
20260905000001 86 210 0.0 0.9 0.00 0.00 0.00 25 982.2
20260904235502 87 141 0.0 0.9 0.00 0.00 0.00 24 982.1
20260904235001 88 130 0.0 2.6 0.00 0.00 0.00 24 982.1
20260904234505 88 146 0.0 2.6 0.00 0.00 0.00 24 982.2
20260904234501 89 122 0.0 4.3 0.00 0.00 0.00 23 982.1
20260904233503 91 143 0.0 3.5 0.00 0.00 0.00 22 982.0
20260904233459 90 164 0.0 4.3 0.00 0.00 0.00 22 982.0
20260904232459 91 297 0.0 2.6 0.00 0.00 0.00 22 982.0
20260904231959 90 219 0.0 2.6 0.00 0.00 0.00 23 982.0
20260904231459 91 35 0.0 2.6 0.00 0.00 0.00 22 982.0
20260904231001 91 195 0.0 0.9 0.00 0.00 0.00 22 982.0
20260904230503 89 199 0.0 0.0 0.00 0.00 0.00 23 982.0
20260904230459 91 130 0.0 0.9 0.00 0.00 0.00 22 982.0
20260904225458 87 141 0.0 0.0 0.00 0.00 0.00 24 982.0
20260904225001 86 140 0.9 5.2 0.00 0.00 0.00 23 982.1
20260904224957 86 158 0.9 5.2 0.00 0.00 0.00 24 982.1
20260904224603 87 246 0.0 5.2 0.00 0.00 0.00 23 982.1
20260904223501 89 153 0.9 4.3 0.00 0.00 0.00 21 982.0
20260904223457 88 142 0.0 5.2 0.00 0.00 0.00 22 982.1
20260904222456 91 147 0.0 5.2 0.00 0.00 0.00 20 982.1
20260904221956 92 142 0.9 5.2 0.00 0.00 0.00 20 982.1
20260904221500 92 174 2.6 8.7 0.00 0.00 0.00 20 982.2
20260904221455 92 146 0.9 5.2 0.00 0.00 0.00 21 982.1
20260904220955 92 217 1.7 8.7 0.00 0.00 0.00 21 982.1
20260904220600 93 189 1.7 7.8 0.00 0.00 0.00 20 982.2
20260904215455 93 117 0.9 3.5 0.00 0.00 0.00 20 982.2
20260904214955 92 137 0.9 4.3 0.00 0.00 0.00 20 982.4
20260904214455 92 199 0.9 5.2 0.00 0.00 0.00 20 982.4
20260904213955 91 221 0.9 5.2 0.00 0.00 0.00 21 982.4
20260904213453 91 72 0.9 5.2 0.00 0.00 0.00 21 982.4
20260904212956 89 204 1.7 9.6 0.00 0.00 0.00 21 982.5
20260904212952 90 208 2.6 9.6 0.00 0.00 0.00 21 982.5
20260904211952 89 141 0.9 5.2 0.00 0.00 0.00 22 982.6
20260904211452 90 168 0.0 4.3 0.00 0.00 0.00 22 982.6
20260904210953 89 146 0.0 4.3 0.00 0.00 0.00 22 982.6
20260904210453 88 122 0.9 5.2 0.00 0.00 0.00 22 982.7
20260904205952 88 134 1.7 6.1 0.00 0.00 0.00 22 982.8
20260904205453 88 191 0.9 6.1 0.00 0.00 0.00 21 983.0
20260904204953 88 195 0.0 4.3 0.00 0.00 0.00 24 983.0
20260904204453 87 175 0.9 4.3 0.00 0.00 0.00 23 983.1
20260904203953 87 132 1.7 7.8 0.00 0.00 0.00 23 983.1
20260904203453 88 174 2.6 7.8 0.00 0.00 0.00 23 983.1
20260904202953 89 160 2.6 7.8 0.00 0.00 0.00 21 983.1
20260904202453 89 179 1.7 7.0 0.00 0.00 0.00 21 983.1
20260904201952 89 137 1.7 7.0 0.00 0.00 0.00 22 983.1
20260904201453 88 129 0.9 7.0 0.00 0.00 0.00 22 983.2
20260904200953 88 202 2.6 11.3 0.00 0.00 0.00 21 983.1
20260904195953 88 155 4.3 9.6 0.00 0.00 0.00 22 983.3
20260904195452 87 242 4.3 9.6 0.00 0.00 0.00 22 983.3
20260904194953 86 212 2.6 8.7 0.00 0.00 0.00 23 983.5
20260904194458 86 214 3.5 10.4 0.00 0.00 0.00 22 983.4
20260904194452 86 217 1.7 7.0 0.00 0.00 0.00 22 983.4
20260904193600 85 173 1.7 7.0 0.00 0.00 0.00 23 983.5
20260904193458 87 205 1.7 7.0 0.00 0.00 0.00 23 983.5
20260904193452 87 150 3.5 10.4 0.00 0.00 0.00 22 983.5
20260904191952 85 240 1.7 7.0 0.00 0.00 0.00 21 983.7
20260904191452 86 224 2.6 7.0 0.00 0.00 0.00 21 983.7
20260904190952 87 186 3.5 11.3 0.00 0.00 0.00 21 983.7
20260904190452 87 290 3.5 11.3 0.00 0.00 0.00 21 983.8
20260904185958 86 206 2.6 10.4 0.00 0.00 0.00 21 983.8
20260904185953 87 218 1.7 8.7 0.00 0.00 0.00 21 983.8
20260904184953 86 280 4.3 14.8 0.00 0.00 0.00 21 984.0
20260904184454 87 214 2.6 14.8 0.00 0.00 0.00 22 984.0
20260904183953 87 193 1.7 8.7 0.00 0.00 0.00 21 984.0
20260904183453 86 131 2.6 14.8 0.00 0.00 0.00 23 984.0
20260904182950 86 259 2.6 14.8 0.00 0.00 0.00 21 984.0
20260904182450 86 164 1.7 6.1 0.00 0.00 0.00 21 984.1
20260904181950 85 197 1.7 7.8 0.00 0.00 0.00 22 984.3
20260904181447 85 304 1.7 7.8 0.00 0.00 0.00 21 984.4
20260904180951 85 297 1.7 7.0 0.00 0.00 0.00 22 984.5
20260904180946 85 285 1.7 7.8 0.00 0.00 0.00 22 984.4
20260904180446 84 319 1.7 7.8 0.00 0.00 0.00 22 984.5
20260904180052 85 320 0.9 7.0 0.00 0.00 0.00 22 984.6
20260904174950 85 195 3.5 8.7 0.00 0.00 0.00 21 984.7
20260904174946 85 224 0.9 9.6 0.00 0.00 0.00 21 984.6
20260904174444 84 250 2.6 9.6 0.00 0.00 0.00 21 984.6
20260904173941 84 195 3.5 8.7 0.00 0.00 0.00 21 984.7
20260904172941 84 232 2.6 7.8 0.00 0.00 0.00 21 984.7
20260904171944 83 179 1.7 7.0 0.00 0.00 0.00 22 984.8
20260904171940 83 152 2.6 10.4 0.00 0.00 0.00 22 984.7
20260904171546 83 256 1.7 7.0 0.00 0.00 0.00 23 984.7
20260904170937 83 202 1.7 7.0 0.00 0.00 0.00 23 984.7
20260904165936 83 236 1.7 7.0 0.00 0.00 0.00 23 984.7
20260904165441 82 236 1.7 7.8 0.00 0.00 0.00 23 984.7
20260904165437 83 222 1.7 6.1 0.00 0.00 0.00 23 984.7
20260904164436 82 113 2.6 7.8 0.00 0.00 0.00 23 984.7
20260904163936 82 214 3.5 7.0 0.00 0.00 0.00 24 984.8
20260904163435 82 222 1.7 7.0 0.00 0.00 0.00 24 984.7
20260904162934 81 212 0.9 5.2 0.00 0.00 0.00 24 984.8
20260904162434 81 229 0.9 5.2 0.00 0.00 0.00 24 984.7
20260904161934 81 46 1.7 6.1 0.00 0.00 0.00 23 984.8
20260904161434 81 198 2.6 7.0 0.00 0.00 0.00 24 984.7